BTI31J EETN-EVRA

Flight info

Callsign BTI31J
Flight time 0h 37m
Altitude 16000
Route ORTAX DCT LUTAL
Aircraft DH8D/M-SDE2E3FGRY/H

Departure

Time 2026-04-30 19:05
Airport Lennart Meri Tallinn Airport (EETN)

Arrival

Time 2026-04-30 19:42
Airport Riga International Airport (EVRA)
Time Latitude Longitude Altitude Speed Heading
2026-04-30 18:40 59.41585 24.80069 156 ft 0 kts 360°
2026-04-30 18:52 59.41586 24.80069 156 ft 0 kts 360°
2026-04-30 18:52 59.41585 24.80069 156 ft 0 kts 360°
2026-04-30 18:54 59.41586 24.80069 156 ft 0 kts 360°
2026-04-30 18:54 59.41579 24.80069 155 ft 2 kts 359°
2026-04-30 18:54 59.41563 24.80069 155 ft 2 kts 359°
2026-04-30 18:55 59.41548 24.80069 155 ft 2 kts 359°
2026-04-30 18:55 59.41518 24.80070 154 ft 2 kts 359°
2026-04-30 18:55 59.41509 24.80070 154 ft 0 kts 359°
2026-04-30 18:58 59.41525 24.80099 155 ft 12 kts 65°
2026-04-30 18:59 59.41523 24.80441 156 ft 13 kts 100°
2026-04-30 19:00 59.41505 24.81210 153 ft 28 kts 91°
2026-04-30 19:00 59.41504 24.81563 149 ft 24 kts 90°
2026-04-30 19:00 59.41502 24.82251 149 ft 22 kts 91°
2026-04-30 19:01 59.41501 24.82945 149 ft 26 kts 91°
2026-04-30 19:01 59.41500 24.83296 149 ft 25 kts 90°
2026-04-30 19:02 59.41498 24.83988 152 ft 25 kts 90°
2026-04-30 19:02 59.41496 24.84700 152 ft 23 kts 90°
2026-04-30 19:03 59.41425 24.85005 152 ft 3 kts 180°
2026-04-30 19:03 59.41424 24.85005 152 ft 0 kts 180°
2026-04-30 19:04 59.41323 24.84964 152 ft 8 kts 257°
2026-04-30 19:04 59.41322 24.84920 152 ft 1 kts 271°
2026-04-30 19:05 59.41331 24.82999 165 ft 140 kts 272°
2026-04-30 19:05 59.41381 24.78783 1231 ft 168 kts 275°
2026-04-30 19:06 59.40592 24.74411 2243 ft 198 kts 213°
2026-04-30 19:06 59.39311 24.73329 2787 ft 206 kts 203°
2026-04-30 19:06 59.36449 24.71173 3633 ft 233 kts 202°
2026-04-30 19:07 59.33384 24.68854 4862 ft 239 kts 202°
2026-04-30 19:07 59.31811 24.67657 5473 ft 243 kts 203°
2026-04-30 19:08 59.28610 24.65208 6674 ft 249 kts 204°
2026-04-30 19:08 59.25319 24.62687 7816 ft 259 kts 204°
2026-04-30 19:08 59.23645 24.61406 8426 ft 262 kts 204°
2026-04-30 19:09 59.20239 24.58792 9637 ft 268 kts 204°
2026-04-30 19:09 59.18493 24.57456 10181 ft 273 kts 205°
2026-04-30 19:09 59.16733 24.56112 10810 ft 276 kts 205°
2026-04-30 19:10 59.13123 24.53356 12009 ft 283 kts 204°
2026-04-30 19:10 59.09410 24.50528 13243 ft 290 kts 205°
2026-04-30 19:11 59.07536 24.49102 13783 ft 295 kts 205°
2026-04-30 19:11 59.03688 24.46182 14874 ft 302 kts 205°
2026-04-30 19:11 59.01689 24.44665 15265 ft 311 kts 205°
2026-04-30 19:12 58.99715 24.43174 15878 ft 310 kts 205°
2026-04-30 19:12 58.97648 24.41608 16119 ft 324 kts 205°
2026-04-30 19:12 58.95519 24.39999 16187 ft 338 kts 205°
2026-04-30 19:13 58.90993 24.36586 16217 ft 362 kts 205°
2026-04-30 19:13 58.86172 24.32964 16209 ft 378 kts 203°
2026-04-30 19:13 58.83666 24.31432 16214 ft 384 kts 195°
2026-04-30 19:14 58.81056 24.30299 16214 ft 388 kts 193°
2026-04-30 19:14 58.78416 24.29178 16216 ft 392 kts 193°
2026-04-30 19:14 58.75764 24.28044 16215 ft 394 kts 193°
2026-04-30 19:14 58.73086 24.26774 16221 ft 396 kts 194°
2026-04-30 19:15 58.70409 24.25656 16223 ft 397 kts 192°
2026-04-30 19:15 58.64980 24.23505 16214 ft 399 kts 192°
2026-04-30 19:15 58.62297 24.22429 16220 ft 399 kts 193°
2026-04-30 19:16 58.59569 24.21242 16227 ft 399 kts 193°
2026-04-30 19:16 58.56867 24.20048 16229 ft 399 kts 194°
2026-04-30 19:16 58.51476 24.17680 16229 ft 400 kts 193°
2026-04-30 19:17 58.48785 24.16506 16220 ft 400 kts 193°
2026-04-30 19:17 58.43378 24.14156 16243 ft 400 kts 193°
2026-04-30 19:17 58.40680 24.12989 16230 ft 401 kts 193°
2026-04-30 19:18 58.36154 24.11036 16234 ft 402 kts 193°
2026-04-30 19:18 58.32524 24.09475 16237 ft 402 kts 193°
2026-04-30 19:18 58.29773 24.08293 16234 ft 402 kts 193°
2026-04-30 19:19 58.27050 24.07126 16234 ft 402 kts 193°
2026-04-30 19:19 58.24350 24.05971 16234 ft 402 kts 193°
2026-04-30 19:19 58.18882 24.03638 16236 ft 402 kts 193°
2026-04-30 19:20 58.16184 24.02490 16236 ft 402 kts 193°
2026-04-30 19:20 58.13443 24.01325 16234 ft 398 kts 193°
2026-04-30 19:20 58.08147 23.99085 16230 ft 387 kts 193°
2026-04-30 19:21 58.05539 23.97983 16232 ft 383 kts 193°
2026-04-30 19:21 58.00367 23.95802 16236 ft 378 kts 193°
2026-04-30 19:22 57.95289 23.93667 16236 ft 375 kts 193°
2026-04-30 19:22 57.87521 23.91476 15973 ft 373 kts 176°
2026-04-30 19:23 57.79867 23.92148 15185 ft 365 kts 175°
2026-04-30 19:24 57.74852 23.92570 14719 ft 361 kts 176°
2026-04-30 19:24 57.72338 23.92776 14482 ft 359 kts 175°
2026-04-30 19:24 57.67417 23.93169 14248 ft 349 kts 176°
2026-04-30 19:25 57.60148 23.93333 14035 ft 347 kts 187°
2026-04-30 19:26 57.55391 23.91930 13475 ft 349 kts 189°
2026-04-30 19:26 57.50635 23.90512 12879 ft 343 kts 189°
2026-04-30 19:26 57.48309 23.89828 12587 ft 337 kts 189°
2026-04-30 19:27 57.43760 23.88496 12028 ft 326 kts 189°
2026-04-30 19:27 57.39356 23.87214 11473 ft 318 kts 189°
2026-04-30 19:28 57.37169 23.86578 11204 ft 320 kts 189°
2026-04-30 19:28 57.32770 23.85304 10656 ft 317 kts 189°
2026-04-30 19:29 57.28484 23.84069 10123 ft 311 kts 189°
2026-04-30 19:29 57.26358 23.83457 9858 ft 308 kts 189°
2026-04-30 19:30 57.20108 23.81663 9063 ft 298 kts 189°
2026-04-30 19:30 57.16058 23.80506 8564 ft 292 kts 189°
2026-04-30 19:31 57.12050 23.79361 7832 ft 293 kts 189°
2026-04-30 19:31 57.10058 23.78792 7539 ft 290 kts 189°
2026-04-30 19:31 57.06139 23.77678 7046 ft 282 kts 189°
2026-04-30 19:32 57.04213 23.77416 6956 ft 272 kts 181°
2026-04-30 19:32 57.02333 23.77387 6702 ft 271 kts 181°
2026-04-30 19:32 57.00460 23.77372 6561 ft 268 kts 180°
2026-04-30 19:32 56.98579 23.77352 6553 ft 265 kts 180°
2026-04-30 19:33 56.96742 23.77334 6508 ft 265 kts 180°
2026-04-30 19:33 56.94886 23.77312 6275 ft 270 kts 180°
2026-04-30 19:33 56.93626 23.77298 6067 ft 272 kts 180°
2026-04-30 19:33 56.91085 23.77270 5608 ft 274 kts 180°
2026-04-30 19:34 56.89154 23.77245 5242 ft 275 kts 180°
2026-04-30 19:34 56.87880 23.77240 4989 ft 274 kts 180°
2026-04-30 19:34 56.83579 23.77236 4147 ft 258 kts 181°
2026-04-30 19:35 56.81817 23.77210 3863 ft 250 kts 183°
2026-04-30 19:35 56.80120 23.76963 3937 ft 244 kts 187°
2026-04-30 19:35 56.78406 23.76647 3976 ft 248 kts 187°
2026-04-30 19:35 56.76709 23.76351 3979 ft 246 kts 187°
2026-04-30 19:36 56.75037 23.76260 3917 ft 234 kts 169°
2026-04-30 19:36 56.73684 23.77659 3902 ft 224 kts 125°
2026-04-30 19:36 56.72845 23.82845 3871 ft 216 kts 94°
2026-04-30 19:37 56.72625 23.85514 3825 ft 213 kts 93°
2026-04-30 19:37 56.72430 23.88179 3772 ft 211 kts 92°
2026-04-30 19:37 56.72317 23.90834 3569 ft 205 kts 79°
2026-04-30 19:37 56.72869 23.93044 3180 ft 189 kts 41°
2026-04-30 19:38 56.73992 23.93921 2840 ft 175 kts
2026-04-30 19:38 56.75217 23.94076 2563 ft 176 kts
2026-04-30 19:38 56.76389 23.94423 2342 ft 170 kts
2026-04-30 19:38 56.77567 23.94655 2199 ft 166 kts
2026-04-30 19:39 56.78702 23.94858 2084 ft 164 kts
2026-04-30 19:39 56.79829 23.95061 2023 ft 160 kts
2026-04-30 19:39 56.80927 23.95246 1984 ft 154 kts
2026-04-30 19:39 56.81969 23.95420 1829 ft 149 kts
2026-04-30 19:40 56.82649 23.95536 1688 ft 143 kts
2026-04-30 19:40 56.83883 23.95730 1359 ft 127 kts
2026-04-30 19:40 56.84771 23.95886 1208 ft 126 kts
2026-04-30 19:40 56.85641 23.96031 1057 ft 127 kts
2026-04-30 19:41 56.86527 23.96176 894 ft 129 kts
2026-04-30 19:41 56.87460 23.96328 716 ft 132 kts
2026-04-30 19:41 56.88385 23.96476 530 ft 131 kts
2026-04-30 19:41 56.89279 23.96604 364 ft 127 kts
2026-04-30 19:42 56.90162 23.96753 184 ft 127 kts
2026-04-30 19:42 56.91040 23.96910 37 ft 119 kts
2026-04-30 19:42 56.91711 23.97012 30 ft 67 kts
2026-04-30 19:42 56.92001 23.97058 30 ft 35 kts
2026-04-30 19:43 56.92213 23.97096 31 ft 26 kts
2026-04-30 19:43 56.92365 23.97153 33 ft 21 kts 25°
2026-04-30 19:43 56.92446 23.97235 33 ft 18 kts 31°
2026-04-30 19:44 56.92604 23.97446 33 ft 7 kts 59°
2026-04-30 19:44 56.92570 23.97544 33 ft 13 kts 180°
2026-04-30 19:44 56.92439 23.97521 34 ft 18 kts 185°
2026-04-30 19:44 56.92316 23.97494 33 ft 21 kts 186°
2026-04-30 19:45 56.92172 23.97471 33 ft 15 kts 174°
2026-04-30 19:45 56.92141 23.97572 35 ft 5 kts 29°
2026-04-30 19:45 56.92188 23.97582 35 ft 5 kts
2026-04-30 19:45 56.92199 23.97584 35 ft 0 kts